This is the latest recevied weather packets stored in our database for station/object VK5GR-12. If no packets are shown the sender has not sent any weather packets the latest 10 day(s).
| Time | Temp. | Humidity | Pressure | Rain* | Wind** | Luminosity | Snow |
|---|---|---|---|---|---|---|---|
| 1777546625 | 22.22° C | 33% | 1020.1 hPa | 0 mm | - | 0 W/m² | - |
| 1777545720 | 21.11° C | 34% | 1020.1 hPa | 0 mm | - | 0 W/m² | - |
| 1777544818 | 21.67° C | 34% | 1020 hPa | 0 mm | - | 0 W/m² | - |
| 1777543914 | 21.67° C | 37% | 1019.8 hPa | 0 mm | - | 0 W/m² | - |
| 1777543013 | 21.67° C | 38% | 1019.6 hPa | 0 mm | - | 0 W/m² | - |
| 1777542108 | 21.67° C | 37% | 1019.5 hPa | 0 mm | - | 0 W/m² | - |
| 1777541205 | 22.22° C | 36% | 1019.3 hPa | 0 mm | - | 0 W/m² | - |
| 1777540301 | 22.22° C | 36% | 1019.4 hPa | 0 mm | - | 0 W/m² | - |
| 1777539402 | 22.78° C | 35% | 1019.3 hPa | 0 mm | - | 0 W/m² | - |
| 1777538500 | 23.33° C | 34% | 1019.4 hPa | 0 mm | - | 0 W/m² | - |
| 1777537600 | 23.33° C | 34% | 1019.1 hPa | 0 mm | - | 0 W/m² | - |
| 1777536696 | 24.44° C | 33% | 1019.3 hPa | 0 mm | - | 1 W/m² | - |
| 1777535796 | 25.56° C | 32% | 1019.2 hPa | 0 mm | - | 8 W/m² | - |
| 1777534892 | 26.11° C | 31% | 1019.2 hPa | 0 mm | - | 18 W/m² | - |
| 1777533991 | 27.78° C | 30% | 1019 hPa | 0 mm | - | 35 W/m² | - |
| 1777533085 | 28.33° C | 28% | 1019.1 hPa | 0 mm | - | 57 W/m² | - |
| 1777532182 | 27.78° C | 28% | 1019.2 hPa | 0 mm | - | 87 W/m² | - |
| 1777531277 | 28.89° C | 26% | 1019.1 hPa | 0 mm | - | 130 W/m² | - |
| 1777530375 | 28.89° C | 27% | 1019.2 hPa | 0 mm | - | 174 W/m² | - |
| 1777529470 | 28.89° C | 27% | 1019.3 hPa | 0 mm | - | 199 W/m² | - |
| 1777528566 | 28.33° C | 27% | 1019.4 hPa | 0 mm | - | 217 W/m² | - |
| 1777527663 | 28.33° C | 28% | 1019.5 hPa | 0 mm | - | 255 W/m² | - |
| 1777526762 | 28.89° C | 26% | 1019.4 hPa | 0 mm | - | 302 W/m² | - |
| 1777525860 | 28.33° C | 27% | 1019.5 hPa | 0 mm | - | 324 W/m² | - |
| 1777524956 | 28.89° C | 27% | 1019.5 hPa | 0 mm | - | 357 W/m² | - |
* Rain latest hour (hover to see other rain measurements)
** Current wind speed in m/s (hover to see current wind gust speed)